Location: Newark
(12.4436°N, 0.6167°W)
Time: 18:41:52
(UTC+00:00)

Vanguard 1 - Visible Passes

Search period start: 12 December 2019 00:00
Search period end: 22 December 2019 00:00
Orbit: 651 x 3832 km, 34.3° (Epoch: 11 December)

Date Brightness Start Highest point End Pass type
(mag) Time Alt. Az. Time Alt. Az. Time Alt. Az.
12 Dec 13.2 01:34:28 47° ENE 01:34:28 47° ENE 01:48:23 10° ENE visible
12 Dec 12.8 03:47:15 48° WNW 03:53:12 55° NNW 04:14:12 10° NE visible
12 Dec13.723:42:07ENE23:42:07ENE23:07:00SSWvisible
13 Dec 13.1 01:54:53 52° NE 01:54:53 52° NE 02:10:08 10° NE visible
13 Dec 13.0 04:07:39 39° WNW 04:15:48 48° NNW 04:35:47 10° NE visible
14 Dec 13.8 00:02:24 12° ENE 00:02:24 12° ENE 00:03:21 10° ENE visible
14 Dec 13.0 02:15:09 55° NNE 02:15:09 55° NNE 02:31:46 10° NE visible
14 Dec 13.1 04:27:54 31° WNW 04:38:37 43° NNW 04:57:33 10° NE visible
14 Dec 13.3 21:32:28 10° S 21:32:51 11° SSE 21:32:51 11° SSE visible
15 Dec 14.0 00:22:33 16° ENE 00:22:33 16° ENE 00:25:44 10° ENE visible
15 Dec 12.9 02:35:17 55° NNE 02:35:17 55° NNE 02:53:24 10° NE visible
15 Dec 13.2 04:48:02 24° WNW 05:01:38 39° N 05:19:30 10° NE visible
15 Dec 13.3 21:51:23 10° S 21:52:12 12° S 21:52:12 12° S visible
16 Dec 13.9 00:42:35 21° ENE 00:42:35 21° ENE 00:47:49 10° ENE visible
16 Dec 12.9 02:55:19 52° N 02:55:19 52° N 03:15:06 10° NE visible
16 Dec 13.3 05:08:03 18° WNW 05:24:46 38° N 05:41:40 10° ENE visible
16 Dec 13.3 22:11:02 10° SSW 22:11:36 12° SSW 22:11:36 12° SSW visible
17 Dec 13.7 01:02:32 26° NE 01:02:32 26° NE 01:09:41 10° NE visible
17 Dec 13.0 03:15:15 47° NNW 03:15:16 47° NNW 03:36:57 10° NE visible
17 Dec 13.3 05:27:59 12° WNW 05:47:55 38° N 06:03:57 10° ENE visible
18 Dec 13.6 01:22:24 30° NE 01:22:24 30° NE 01:31:28 10° NE visible
18 Dec 13.1 03:35:07 41° NNW 03:38:15 43° NNW 03:59:00 10° NE visible
18 Dec 13.3 05:49:38 10° WNW 06:10:57 40° N 06:26:16 10° ENE visible
18 Dec 13.0 20:36:49 10° SSE 20:37:55 12° SSE 20:37:55 12° SSE visible
18 Dec13.623:29:31ENE23:29:31ENE22:50:36SWvisible
19 Dec 13.5 01:42:13 34° NE 01:42:13 34° NE 01:53:16 10° NE visible
19 Dec 13.2 03:54:56 35° NW 04:01:24 40° N 04:21:15 10° ENE visible
19 Dec 12.8 20:55:16 10° S 20:57:29 16° SSE 20:57:29 16° SSE visible
19 Dec13.823:49:17ENE23:49:17ENE23:10:10SWvisible
20 Dec 13.4 02:01:59 37° NNE 02:01:59 37° NNE 02:15:10 10° NE visible
20 Dec 13.3 04:14:41 30° NW 04:24:40 39° N 04:43:44 10° ENE visible
20 Dec 12.7 21:14:49 10° SSW 21:17:06 19° S 21:17:06 19° S visible
21 Dec 13.3 02:21:42 39° NNE 02:21:42 39° NNE 02:37:15 10° NE visible
21 Dec 13.3 04:34:25 24° NW 04:47:56 40° N 05:06:18 10° ENE visible
21 Dec 12.8 21:34:52 10° SSW 21:36:45 19° SSW 21:36:45 19° SSW visible
